Regional Weather Roundup
Issued by NWS Cleveland, OH

Home | Current Version | Previous Version | Graphics & Text | Print | Product List | Glossary On
Versions: 1 2 3 4 5 6 7 8 9 10 11 12 13 14 15 16 17 18 19 20 21 22 23 24 25 26 27 28 29 30 31 32 33 34 35 36 37 38 39 40 41 42 43 44 45 46 47 48 49 50
000
ASUS41 KCLE 300110
RWRCLE
OHIO REGIONAL WEATHER ROUNDUP
NATIONAL WEATHER SERVICE WILMINGTON, OH
900 PM EDT SAT APR 29 2017

NOTE: "FAIR" INDICATES FEW OR NO CLOUDS BELOW 12,000 FEET WITH NO
SIGNIFICANT WEATHER AND/OR OBSTRUCTIONS TO VISIBILITY.

OHZ001>008-015>018-024>027-034-035-043-044-300200-
   NORTHWEST OHIO

CITY           SKY/WX    TMP DP  RH WIND       PRES   REMARKS
DEFIANCE       CLOUDY    45  37  73 NE15G23   30.13F
FINDLAY        CLOUDY    47  38  71 NE22G29   30.12R
TOLEDO EXPRESS CLOUDY    45  37  73 NE14      30.17R
TOLEDO EXEC    CLOUDY    47  38  71 NE13G18   30.19R
LIMA           CLOUDY    47  44  90 NE17G23   30.09R
$$

OHZ009>014-019>023-028>033-038-089-300200-
   NORTHEAST OHIO

CITY           SKY/WX    TMP DP  RH WIND       PRES   REMARKS
CLE-HOPKINS    CLOUDY    48  39  71 NE14      30.19F
CLE-LAKEFRONT  CLOUDY    48  41  76 NE14      30.18F
CUY CO. ARPT   CLOUDY    48  43  81 E8        30.20R
LORAIN-ELYRIA  CLOUDY    45  37  73 NE12      30.18S
ASHTABULA      CLOUDY    48  41  76 N3        30.21R
AKRON-CANTON   CLOUDY    51  47  86 NE10      30.15S
WOOSTER        CLOUDY    49  46  90 NE8       30.15S
MANSFIELD      CLOUDY    46  44  93 NE10      30.14R
YOUNGSTOWN     CLOUDY    50  47  89 NE7       30.18S
$$

OHZ042-051>053-060>062-070>072-077>081-300200-
  SOUTHWEST OHIO

CITY           SKY/WX    TMP DP  RH WIND       PRES   REMARKS
CINC-COVINGTON MOCLDY    74  66  76 E7        29.95R
CINC-LUNKEN    FAIR      70  69  97 CALM      29.95R
HAMILTON       FAIR      72  66  81 NE6       29.97R
DAYTON         CLOUDY    57  56  96 NE12      30.03R
WRIGHT-PAT AFB CLOUDY    58  58 100 NE14      30.02R FOG
DAYTON GENERAL CLOUDY    72  64  76 E10       29.98R
WILMINGTON     FAIR      71  65  81 NE8       29.99S
$$

OHZ036-037-039>041-045>050-054>059-063>069-073>076-082>088-300200-
  CENTRAL AND SOUTHEAST OHIO

CITY           SKY/WX    TMP DP  RH WIND       PRES   REMARKS
COLUMBUS       MOCLDY    63  60  90 NE9       30.04R
OSU AIRPORT    CLOUDY    59  58  96 NE14      30.05R
BOLTON FIELD   FAIR      62  59  92 N8        30.04S
RICKENBACK AFB FAIR      67  64  89 NE8       30.01F
NEWARK         MOCLDY    60  57  89 NE7       30.06R
MARION         CLOUDY    48  45  89 NE14      30.11R
LANCASTER      FAIR      69  63  81 NE17      30.04R
ZANESVILLE     FAIR      64  59  83 NE8       30.07R
NEW PHILLY     CLOUDY    58  56  93 N8        30.13R
$$



USA.gov is the U.S. government's official web portal to all federal, state and local government web resources and services.